Voltar ao catálogo

STARLINK-32200

AtivoComunicaçõesVLEO
NORAD 60258·PAYLOAD·🇺🇸 United States

Lançado Jul 27, 2024 de Cape Canaveral Space Force Station

Loading…

Próximas Passagens (próximas 24 horas)

TLE

AtualizadoSource: CelesTrak SupGP

Época: Sep 14, 2026, 20:52 UTC

1 60258C 24131D   26257.86993056  .00051454  00000+0  15204-2 0  2579
2 60258  53.1571 252.0904 0001271  94.9329 344.0342 15.34361463    11

Acompanhe STARLINK-32200 em tempo real com AllMySat

Download on the App Store